www.pogodaiklimat.ru

Погода и климат >> Архив погоды >> Австралия >> Южная Австралия >> Мумба


ПОГОДА в Мумбе

  • Прогноз погоды в Мумбе
  • Монитор погоды в Мумбе

АРХИВ ПОГОДЫ в Мумбе

Время (UTC), дата Ветер
(напр.,м/с)
 
Видим.   Явления Облачность Т
(С)
Тd
(С)
f
(%)
Тe
(С)
Тes
(С)
Комфортность P
(гПа)
Po
(гПа)
Тmin
(С)
Tmax
(С)
R
(мм)
R24
(мм)
S
(см)
04 13.05 В 3 н/о н/о +22.0 +4.1 31 +22 +22 комфорт 1022.5 1017.9
05 13.05 В 5 н/о н/о +22.1 +3.7 30 +22 +22 комфорт 1022.0 1017.4
06 13.05 СВ 2 н/о н/о +22.7 +3.3 28 +23 +23 комфорт 1021.9 1017.3
07 13.05 ЮВ 3 н/о н/о +22.1 +3.3 29 +22 +22 комфорт 1022.0 1017.4
08 13.05 В 3 н/о н/о +20.2 +3.0 32 +21 +21 комфорт 1022.6 1018.0
09 13.05 ЮВ 3 н/о н/о +18.4 +3.5 37 +19 +19 1023.1 1018.5
10 13.05 ЮВ 4 н/о н/о +18.8 +3.4 36 +19 +19 1023.6 1019.0
11 13.05 Ю 3 н/о н/о +16.8 +3.5 41 +17 +17 1024.1 1019.5
12 13.05 ЮВ 4 н/о н/о +16.2 +3.9 44 +16 +16 1024.3 1019.7
13 13.05 ЮВ 4 н/о н/о +15.2 +4.3 48 +14 +14 1024.3 1019.7
14 13.05 ЮВ 4 н/о н/о +13.9 +4.2 52 +13 +13 1024.1 1019.5 +22.9
15 13.05 ЮВ 4 н/о н/о +14.3 +5.1 54 +13 +13 1024.0 1019.4
16 13.05 ЮВ 4 н/о н/о +14.7 +5.8 55 +14 +14 1023.8 1019.2
17 13.05 ЮВ 4 н/о н/о +13.9 +5.0 55 +13 +13 1023.7 1019.1
18 13.05 Ю 4 н/о н/о +11.6 +4.3 61 +10 +10 1023.6 1019.0
19 13.05 ЮВ 4 н/о н/о +11.5 +4.5 62 +9 +9 1023.7 1019.1
20 13.05 Ю 4 н/о н/о +10.3 +4.0 65 +8 +8 1024.4 1019.8
21 13.05 Ю 3 н/о н/о +9.6 +3.6 66 +8 +8 1025.2 1020.6
22 13.05 ЮВ 5 н/о н/о +13.4 +5.6 59 +12 +12 1025.6 1021.0
23 13.05 ЮВ 6 н/о н/о +15.9 +6.3 53 +15 +15 1026.0 1021.4
00 14.05 В 8 н/о н/о +18.9 +7.0 46 +19 +19 1026.1 1021.5
01 14.05 В 7 н/о н/о +21.3 +7.5 41 +22 +22 комфорт 1025.8 1021.2
02 14.05 В 6 н/о н/о +23.4 +8.3 38 +25 +25 комфорт 1025.1 1020.5 +9.7
03 14.05 В 5 н/о н/о +25.4 +9.3 36 +26 +26 жарко 1024.1 1019.5
04 14.05 В 5 н/о н/о +25.2 +8.2 34 +26 +26 жарко 1023.3 1018.7
05 14.05 ЮВ 5 н/о н/о +25.1 +7.3 32 +25 +25 комфорт 1022.9 1018.3
06 14.05 В 6 н/о н/о +25.8 +7.4 31 +26 +26 жарко 1022.8 1018.2
07 14.05 В 6 н/о н/о +25.1 +6.3 30 +25 +25 комфорт 1023.0 1018.4
08 14.05 ЮВ 5 н/о н/о +23.6 +7.3 35 +24 +24 комфорт 1023.6 1019.0
09 14.05 ЮВ 4 н/о н/о +22.3 +7.7 39 +23 +23 комфорт 1024.1 1019.5
10 14.05 ЮВ 6 н/о н/о +22.4 +7.4 38 +23 +23 комфорт 1024.6 1020.0
11 14.05 ЮВ 6 н/о н/о +21.3 +7.2 40 +22 +22 комфорт 1025.1 1020.5
12 14.05 ЮВ 7 н/о н/о +20.8 +7.1 41 +22 +22 комфорт 1025.3 1020.7
13 14.05 ЮВ 6 н/о н/о +19.4 +7.2 45 +20 +20 1025.4 1020.8
14 14.05 ЮВ 6 н/о н/о +18.9 +7.0 46 +19 +19 1025.6 1021.0 +26.8
15 14.05 ЮВ 5 н/о н/о +17.5 +6.7 49 +17 +17 1025.4 1020.8
16 14.05 ЮВ 5 н/о н/о +16.9 +6.4 50 +16 +16 1025.1 1020.5
17 14.05 ЮВ 5 н/о н/о +16.2 +6.1 51 +15 +15 1024.9 1020.3
18 14.05 ЮВ 5 н/о н/о +15.7 +5.6 51 +15 +15 1024.9 1020.3
19 14.05 ЮВ 4 н/о н/о +15.3 +5.2 51 +14 +14 1025.0 1020.4
20 14.05 ЮВ 4 н/о н/о +15.2 +5.1 51 +14 +14 1025.2 1020.6
21 14.05 ЮВ 4 н/о н/о +15.0 +5.0 51 +14 +14 1025.9 1021.3
22 14.05 ЮВ 4 н/о н/о +15.5 +4.8 49 +15 +15 1026.6 1022.0
23 14.05 ЮВ 5 н/о н/о +17.3 +4.9 44 +17 +17 1027.0 1022.4
00 15.05 ЮВ 7 н/о н/о +20.2 +5.4 38 +21 +21 комфорт 1027.1 1022.5
01 15.05 В 6 н/о н/о +22.0 +5.8 35 +23 +23 комфорт 1026.7 1022.1
02 15.05 В 6 н/о 1/0 2000 м
[]
+23.6 +7.3 35 +24 +24 комфорт 1025.8 1021.2 +15.0
03 15.05 В 5 н/о н/о +25.0 +8.1 34 +25 +25 комфорт 1024.8 1020.2
04 15.05 В 4 н/о н/о +25.5 +8.5 34 +26 +26 жарко 1023.9 1019.3
05 15.05 ЮВ 4 н/о 5/0 2000 м
[]
+25.3 +8.3 34 +26 +26 жарко 1023.2 1018.6
06 15.05 В 5 н/о н/о +25.8 +7.4 31 +26 +26 жарко 1023.2 1018.6
07 15.05 В 5 н/о н/о +25.2 +7.3 32 +25 +25 комфорт 1023.1 1018.5
08 15.05 ЮВ 4 н/о н/о +23.8 +7.4 35 +24 +24 комфорт 1023.4 1018.8
09 15.05 ЮВ 5 н/о н/о +22.4 +7.4 38 +23 +23 комфорт 1024.0 1019.4
10 15.05 ЮВ 5 н/о н/о +21.8 +7.6 40 +23 +23 комфорт 1024.6 1020.0
11 15.05 ЮВ 5 н/о н/о +21.1 +7.7 42 +22 +22 комфорт 1024.9 1020.3
12 15.05 ЮВ 6 н/о н/о +19.9 +7.6 45 +21 +21 комфорт 1025.1 1020.5
13 15.05 Ю 5 н/о н/о +17.5 +6.4 48 +17 +17 1025.2 1020.6
14 15.05 Ю 6 н/о н/о +17.2 +5.8 47 +16 +16 1024.9 1020.3 +26.6
15 15.05 Ю 5 н/о н/о +17.0 +5.6 47 +16 +16 1024.5 1019.9
16 15.05 ЮВ 6 н/о н/о +16.9 +5.8 48 +16 +16 1023.8 1019.2
17 15.05 ЮВ 4 н/о н/о +15.3 +5.8 53 +14 +14 1023.5 1018.9
18 15.05 ЮВ 4 н/о н/о +14.7 +5.8 55 +14 +14 1023.2 1018.6
19 15.05 ЮВ 4 н/о н/о +14.1 +5.7 57 +13 +13 1023.1 1018.5
20 15.05 ЮВ 5 н/о 6/0 2000 м
[]
+13.8 +5.7 58 +12 +12 1023.3 1018.7
21 15.05 ЮВ 4 н/о н/о +13.6 +5.5 58 +12 +12 1023.9 1019.3
22 15.05 ЮВ 4 н/о н/о +14.8 +5.1 52 +14 +14 1024.6 1020.0
23 15.05 В 7 н/о н/о +17.4 +4.7 43 +17 +17 1024.5 1019.9
00 16.05 В 8 н/о н/о +20.4 +4.4 35 +21 +21 комфорт 1024.5 1019.9
01 16.05 В 8 н/о н/о +22.3 +4.8 32 +23 +23 комфорт 1024.1 1019.5
02 16.05 В 8 н/о н/о +24.1 +5.0 29 +24 +24 комфорт 1022.9 1018.3 +13.6
03 16.05 В 7 н/о н/о +25.2 +5.4 28 +25 +25 комфорт 1021.8 1017.2
04 16.05 В 6 н/о н/о +25.6 +6.3 29 +25 +25 комфорт 1020.9 1016.3
05 16.05 ЮВ 6 н/о 6/0 2000 м
[]
+26.0 +6.6 29 +26 +26 жарко 1020.4 1015.8
06 16.05 ЮВ 6 н/о н/о +25.0 +6.2 30 +25 +25 комфорт 1020.0 1015.4
07 16.05 ЮВ 6 н/о н/о +25.0 +6.7 31 +25 +25 комфорт 1020.1 1015.5
08 16.05 ЮВ 7 н/о н/о +23.7 +5.6 31 +24 +24 комфорт 1020.5 1015.9
09 16.05 ЮВ 7 н/о н/о +22.9 +5.3 32 +23 +23 комфорт 1021.2 1016.6
10 16.05 ЮВ 5 н/о н/о +21.8 +5.3 34 +22 +22 комфорт 1021.7 1017.1
11 16.05 ЮВ 7 н/о 1/0 2000 м
[]
+21.1 +5.1 35 +22 +22 комфорт 1022.2 1017.6
12 16.05 ЮВ 5 н/о н/о +19.7 +5.0 38 +20 +20 1022.4 1017.8
13 16.05 ЮВ 4 н/о н/о +18.6 +5.1 41 +19 +19 1022.1 1017.5
14 16.05 ЮВ 4 н/о н/о +17.6 +5.2 44 +17 +17 1021.6 1017.0 +26.4
15 16.05 ЮВ 4 н/о н/о +16.8 +5.1 46 +16 +16 1021.3 1016.7
16 16.05 ЮВ 5 н/о н/о +16.2 +5.2 48 +15 +15 1021.0 1016.4
17 16.05 ЮВ 5 н/о н/о +15.8 +5.1 49 +15 +15 1020.6 1016.0
18 16.05 ЮВ 4 н/о н/о +15.7 +5.0 49 +15 +15 1020.5 1015.9
19 16.05 ЮВ 4 н/о н/о +15.2 +4.9 50 +14 +14 1020.6 1016.0
20 16.05 ЮВ 3 н/о н/о +14.6 +4.9 52 +14 +14 1020.7 1016.1
21 16.05 ЮВ 3 н/о н/о +14.4 +5.0 53 +14 +14 1021.1 1016.5
22 16.05 ЮВ 3 н/о н/о +15.3 +5.0 50 +15 +15 1021.6 1017.0
23 16.05 В 3 н/о 5/0 2000 м
[]
+17.3 +6.2 48 +17 +17 1022.0 1017.4
00 17.05 В 5 н/о н/о +19.6 +8.0 47 +20 +20 1022.2 1017.6
01 17.05 СВ 5 н/о н/о +23.7 +10.4 43 +25 +25 комфорт 1021.7 1017.1
02 17.05 СВ 4 н/о н/о +26.2 +11.2 39 +27 +27 жарко 1020.9 1016.3 +13.9
03 17.05 СВ 4 н/о н/о +27.6 +11.6 37 +29 +29 жарко 1019.8 1015.2
04 17.05 СЗ 2 н/о н/о +27.8 +10.9 35 +29 +29 жарко 1019.0 1014.4
05 17.05 В 2 н/о 5/0 2000 м
[]
+28.2 +10.9 34 +29 +29 жарко 1018.4 1013.8
06 17.05 штиль 0 н/о н/о +27.7 +10.9 35 +28 +28 жарко 1018.4 1013.8
07 17.05 ЮВ 2 н/о н/о +27.3 +10.9 36 +28 +28 жарко 1018.6 1014.0
08 17.05 В 3 н/о н/о +25.4 +10.1 38 +26 +26 жарко 1019.3 1014.7
09 17.05 ЮВ 3 н/о н/о +23.8 +10.1 42 +25 +25 комфорт 1019.8 1015.2
10 17.05 В 3 н/о н/о +21.3 +9.2 46 +23 +23 комфорт 1020.5 1015.9
11 17.05 ЮВ 3 н/о 8/0 2000 м
[]
+20.3 +8.9 48 +22 +22 комфорт 1021.1 1016.5
12 17.05 В 4 н/о н/о +20.4 +9.0 48 +22 +22 комфорт 1021.3 1016.7
13 17.05 В 4 н/о н/о +19.7 +9.6 52 +21 +21 комфорт 1021.3 1016.7
14 17.05 В 4 н/о 1/0 2000 м
[]
+19.2 +10.2 56 +20 +20 1021.2 1016.6 +28.4
15 17.05 В 4 н/о н/о +18.5 +10.6 60 +19 +19 1020.8 1016.2
16 17.05 В 3 н/о н/о +17.8 +10.7 63 +18 +18 1020.7 1016.1
17 17.05 В 3 н/о н/о +16.5 +10.1 66 +16 +16 1020.3 1015.7
18 17.05 В 3 н/о н/о +16.1 +10.4 69 +16 +16 1020.0 1015.4
19 17.05 В 3 н/о н/о +15.6 +10.2 70 +15 +15 1020.4 1015.8
20 17.05 В 4 н/о н/о +15.0 +10.2 73 +14 +14 1020.7 1016.1
21 17.05 СВ 3 н/о н/о +16.3 +11.0 71 +16 +16 1021.1 1016.5
22 17.05 СВ 3 н/о н/о +18.4 +11.5 64 +19 +19 1022.1 1017.5
23 17.05 СВ 4 н/о н/о +21.9 +12.2 54 +24 +24 комфорт 1023.0 1018.4
00 18.05 СВ 6 н/о н/о +24.3 +11.6 45 +26 +26 жарко 1023.4 1018.8
01 18.05 СВ 6 н/о н/о +26.6 +11.1 38 +28 +28 жарко 1023.1 1018.5
02 18.05 СВ 7 н/о 1/0
[]
+28.9 +10.6 32 +29 +29 жарко 1021.9 1017.3 +15.0
03 18.05 СВ 6 н/о н/о +29.9 +10.5 30 +30 +30 жарко 1021.1 1016.5
04 18.05 СВ 5 н/о н/о +29.7 +9.8 29 +30 +30 жарко 1020.6 1016.0
05 18.05 С 5 н/о 4/0 2000 м
[]
+29.5 +9.1 28 +29 +29 жарко 1020.2 1015.6
06 18.05 СВ 5 н/о н/о +29.8 +9.3 28 +29 +29 жарко 1020.1 1015.5
07 18.05 В 5 н/о н/о +28.8 +9.0 29 +29 +29 жарко 1020.3 1015.7
08 18.05 В 5 н/о 10/0 2000 м
[]
+27.5 +8.9 31 +28 +28 жарко 1020.7 1016.1
09 18.05 СВ 4 н/о н/о +26.0 +8.9 34 +26 +26 жарко 1021.4 1016.8
10 18.05 В 4 н/о н/о +24.8 +8.7 36 +25 +25 комфорт 1021.9 1017.3
11 18.05 СВ 4 н/о 10/0
[]
+24.5 +8.9 37 +25 +25 комфорт 1022.1 1017.5
12 18.05 В 4 н/о н/о +22.6 +9.0 42 +24 +24 комфорт 1021.9 1017.3
13 18.05 В 5 н/о н/о +23.0 +9.0 41 +24 +24 комфорт 1022.0 1017.4
14 18.05 В 5 н/о 9/0
[]
+22.5 +8.6 41 +24 +24 комфорт 1021.9 1017.3 +30.9
15 18.05 В 4 н/о н/о +22.4 +8.1 40 +24 +24 комфорт 1021.5 1016.9
16 18.05 В 3 н/о н/о +21.6 +7.8 41 +23 +23 комфорт 1021.8 1017.2
17 18.05 В 4 н/о 9/0 2000 м
[]
+20.9 +7.9 43 +22 +22 комфорт 1021.6 1017.0
18 18.05 В 2 н/о н/о +19.8 +7.5 45 +21 +21 комфорт 1021.8 1017.2
19 18.05 В 3 н/о н/о +19.5 +7.9 47 +21 +21 комфорт 1022.0 1017.4
20 18.05 В 3 н/о 10/0
[]
+19.0 +8.1 49 +20 +20 1022.2 1017.6
21 18.05 В 4 н/о н/о +19.8 +9.1 50 +21 +21 комфорт 1022.6 1018.0
22 18.05 СВ 5 н/о н/о +20.9 +9.5 48 +22 +22 комфорт 1022.7 1018.1
23 18.05 СВ 6 н/о 3/0
[]
+22.3 +10.1 46 +24 +24 комфорт 1022.9 1018.3
00 19.05 СВ 7 н/о н/о +24.9 +10.4 40 +26 +26 жарко 1023.3 1018.7
01 19.05 СВ 7 н/о н/о +27.2 +10.8 36 +28 +28 жарко 1022.7 1018.1
02 19.05 С 7 н/о 9/0
[]
+27.6 +11.2 36 +28 +28 жарко 1021.8 1017.2 +18.9
03 19.05 С 6 н/о н/о +29.2 +10.3 31 +29 +29 жарко 1020.8 1016.2
04 19.05 СВ 6 н/о н/о +28.6 +9.3 30 +29 +29 жарко 1020.2 1015.6
05 19.05 С 6 н/о 5/0
[]
+29.6 +8.6 27 +29 +29 жарко 1019.6 1015.0
06 19.05 С 4 н/о н/о +29.6 +9.7 29 +29 +29 жарко 1019.5 1014.9
07 19.05 С 4 н/о н/о +28.3 +10.0 32 +29 +29 жарко 1019.7 1015.1
08 19.05 СВ 5 н/о 6/0 2000 м
[]
+27.1 +10.3 35 +28 +28 жарко 1020.0 1015.4
09 19.05 СВ 5 н/о н/о +25.4 +10.4 39 +26 +26 жарко 1020.5 1015.9
10 19.05 С 5 н/о н/о +24.7 +10.9 42 +26 +26 жарко 1021.2 1016.6
11 19.05 С 4 н/о н/о +23.0 +10.4 45 +25 +25 комфорт 1021.6 1017.0
12 19.05 С 3 н/о н/о +21.9 +10.4 48 +24 +24 комфорт 1022.1 1017.5
13 19.05 С 3 н/о н/о +21.2 +9.8 48 +23 +23 комфорт 1022.2 1017.6
14 19.05 С 3 н/о 5/0 2000 м
[]
+20.3 +9.8 51 +22 +22 комфорт 1022.2 1017.6 +30.4
15 19.05 С 5 н/о н/о +19.3 +9.8 54 +20 +20 1021.9 1017.3
16 19.05 С 4 н/о н/о +18.0 +9.4 57 +18 +18 1021.7 1017.1
17 19.05 С 4 н/о н/о +17.8 +9.9 60 +18 +18 1021.6 1017.0
18 19.05 С 4 н/о н/о +17.0 +10.1 64 +17 +17 1021.3 1016.7
19 19.05 С 4 н/о н/о +17.1 +10.5 65 +17 +17 1021.4 1016.8
20 19.05 СВ 3 н/о н/о +15.5 +9.6 68 +15 +15 1021.5 1016.9
21 19.05 С 3 н/о н/о +15.5 +9.2 66 +15 +15 1022.2 1017.6
22 19.05 СВ 4 н/о н/о +16.4 +9.3 63 +16 +16 1022.7 1018.1
23 19.05 С 4 н/о н/о +19.8 +9.7 52 +21 +21 комфорт 1023.3 1018.7
00 20.05 СВ 5 н/о н/о +23.6 +10.6 44 +25 +25 комфорт 1023.4 1018.8
01 20.05 С 6 н/о н/о +26.6 +10.3 36 +27 +27 жарко 1023.1 1018.5
02 20.05 С 5 н/о н/о +27.7 +9.0 31 +28 +28 жарко 1022.6 1018.0 +14.9

 

Местоположение метеостанции Мумба (Южная Австралия, Австралия): широта -28.10 долгота 140.20 высота над уровнем моря 38 м.

В архиве по умолчанию представлена погода в Мумбе за последнюю неделю. Архивные данные за месяц целиком и за предыдущие месяцы, начиная с января 2011 года, Вы можете получить, выбрав интересующий диапазон дат из раскрывающегося списка и нажав кнопку "Ввод!".


*Определитесь, кто Вы:
робот инопланетянин человек

Внимание! Время в таблицах - всемирное. Для получения местного времени необходимо прибавить поправку, которая равна 9.5 ч.

Смотрите также архив погоды в соседних городах и на ближайших метеорологических станциях:

Погода в Месторождении Ballera (Квинсленд, Австралия) (176 км)
Погода в Тибообере (Новый Южный Уэльс, Австралия) (235 км)
Погода в Бердсвилле (Квинсленд, Австралия) (259 км)
Погода в Марри (Южная Австралия, Австралия) (271 км)
Погода в Ли-Крике (Южная Австралия, Австралия) (327 км)
Погода в Таргоминде (Квинсленд, Австралия) (355 км)
Погода в Фоулерс Гэп (Новый Южный Уэльс, Австралия) (362 км)
Погода в Уафт Клифс (Новый Южный Уэльс, Австралия) (413 км)
Погода в Олимпик Дэм (Южная Австралия, Австралия) (417 км)
Погода в Брокен-Хилл аэропорту (Новый Южный Уэльс, Австралия) (450 км)

Пояснения к столбцам:

Ветер - указаны скорость ветра в м/с - средняя за 10 мин, порывы в срок и между сроками (в фигурных скобках) и направление, откуда дует ветер: С - северный, СВ - северо-восточный, В - восточный, ЮВ - юго-восточный, Ю - южный, ЮЗ - юго-западный, З - западный, СЗ - северо-западный.
Видимость - горизонтальная дальность видимости в метрах или километрах. При видимости от 1 до 10 км при отсутствии осадков обычно наблюдается дымка, при ухудшении видимости до 1 км и менее - туман. В сухую погоду видимость может ухудшаться дымом, пылью или мглою.
Явления - указаны атмосферные явления, наблюдавшиеся в срок или в последний час перед сроком; фигурными скобками обозначены явления, наблюдавшиеся между сроками (за 1-3 часа до срока); квадратными скобками обозначены град или гололедные отложения с указанием их диаметра в мм.
Облачность - указаны через наклонную черту общая и нижняя облачность в баллах и высота нижней границы облаков в метрах; квадратными скобками обозначены формы облаков: Ci - перистые, Cs - перисто-слоистые, Cc - перисто-кучевые, Ac - высококучевые, As - высокослоистые, Sc - слоисто-кучевые, Ns - слоисто-дождевые, Cu - кучевые, Cb - кучево-дождевые. Подробнее классификацию облаков см. в Атласе облаков (PDF).
T - Температура воздуха - температура, измеренная на высоте 2 м над землей.
Td - Температура точки росы - температура, при понижении до которой содержащийся в воздухе водяной пар достигнет насыщения.
f - Относительная влажность воздуха - влажноcть воздуха, измеренная на высоте 2 м над землей.
Te - Эффективная температура - температура, которую ощущает одетый по сезону человек в тени. Характеристика душности погоды. При расчете учитывается влияние влажности воздуха и скорости ветра на теплоощущения человека.
Tes - Эффективная температура на солнце - температура, которую ощущает человек, с поправкой на солнечный нагрев. Характеристика знойности погоды. Зависит от высоты солнца над горизонтом, облачности и скорости ветра. Ночью, в пасмурную погоду, а также при ветре 12 м/с и более поправка равна нулю.
P - Атмосферное давление - приведенное к уровню моря атмосферное давление.
Po - Атмосферное давление - измеренное на уровне метеостанции атмосферное давление.
Tmin - Минимальная температура - минимум температуры воздуха на высоте 2 м над землей.
Tmax - Максимальная температура - максимум температуры воздуха на высоте 2 м над землей.
R - Количество осадков - Количество выпавших осадков за период времени, мм. При наведении курсора мыши на число - период времени, за который выпало указанное количество осадков.
R24 - Количество осадков - Количество выпавших осадков за 24 часа, мм.
S - Снежный покров - Высота снежного покрова, см. При наведении курсора мыши на число - состояние снежного покрова и степень покрытия местности в баллах.